Hourly Data Report for October 21, 2013

All times are specified in Local Standard Time (LST). Add 1 hour to adjust for Daylight Saving Time where and when it is observed.

ST LEONARD CS
NEW BRUNSWICK

47°09'28.050" N
67°49'55.014" W
245.00 m
810I001
71019
WIY

Download Data

Hourly Data (October 2013)
Hourly Data Report for October 21, 2013
Temp Definition
°C
Dew Point Temp Definition
°C
Rel Hum Definition
%
Wind Dir Definition
10's deg

Wind Spd Definition
km/h
Visibility Definition
km
Stn Press Definition
kPa
Hmdx Definition


Wind Chill Definition


Weather Definition


TIME
00:00 4.8 1.1 77 24 11   97.79     LegendNANA
01:00 4.4 1.1 79 24 13   97.85     LegendNANA
02:00 3.5 1.1 84 23 7   97.91     LegendNANA
03:00 3.8 1.0 82 24 11   97.94     LegendNANA
04:00 3.6 0.8 82 25 9   98.01     LegendNANA
05:00 2.8 0.9 87 22 4   98.04     LegendNANA
06:00 3.0 1.0 87 23 4   98.10     LegendNANA
07:00 3.3 1.0 85 27 9   98.17     LegendNANA
08:00 3.3 1.1 85 27 6   98.27     LegendNANA
09:00 4.7 1.9 82 27 13   98.35     LegendNANA
10:00 5.8 1.9 76 27 15   98.40     LegendNANA
11:00 6.0 2.1 76 26 9   98.42     LegendNANA
12:00 9.1 3.0 66 29 17   98.44     LegendNANA
13:00 8.5 2.6 66 26 13   98.45     LegendNANA
14:00 9.6 2.8 63 26 15   98.45     LegendNANA
15:00 9.9 2.7 61 27 11   98.45     LegendNANA
16:00 11.0 3.0 58 25 2   98.45     LegendNANA
17:00 10.3 2.9 60 16 2   98.46     LegendNANA
18:00 5.3 3.2 86 13 6   98.50     LegendNANA
19:00 4.0 2.5 90 12 4   98.49     LegendNANA
20:00 3.9 2.1 88 14 6   98.50     LegendNANA
21:00 2.8 2.2 96 13 6   98.51     LegendNANA
22:00 5.5 3.1 85 13 9   98.51     LegendNANA
23:00 5.2 3.0 86 12 4   98.48     LegendNANA

Notes on Data Quality.

Legend

  • E = Estimated
  • M = Missing
  • NA = Not Available
  • ‡ = Partner data that is not subject to review by the National Climate Archives
Date modified: